Weather History for Syracuse, NY

Change the Weather History Date:

Thursday, November 1, 2012

  Actual Average Record
Temperature  
Mean Temperature 45 °F 46 °F  
Max Temperature 46 °F 54 °F 81 °F (1950)
Min Temperature 43 °F 37 °F 24 °F (1938)
Degree Days  
Heating Degree Days 20 20  
Month to date heating degree days 20 20  
Since 1 July heating degree days 463 637  
Cooling Degree Days 0 0  
Month to date cooling degree days 0 0  
Year to date cooling degree days 953 569  
Moisture  
Dew Point 41 °F    
Average Humidity 84    
Maximum Humidity 92    
Minimum Humidity 76    
Precipitation  
Precipitation 0.22 in 0.12 in 1.53 in (1921)
Month to date precipitation 0.22 0.12  
Year to date precipitation 26.35 31.84  
Snow  
Snow 0.00 in 0.10 in 6.70 in (1993)
Month to date snowfall 0.0 0.1  
Since 1 July snowfall 0.0 0.5  
Since 1 September snowfall 0.0 0.5  
Snow Depth 0.00 in    
Sea Level Pressure  
Sea Level Pressure 29.49 in    
Wind  
Wind Speed 11 mph (SW)    
Max Wind Speed 21 mph    
Max Gust Speed 24 mph    
Visibility 9 miles    
Events Rain    
T = Trace of Precipitation, MM = Missing Value Source: NWS Daily Summary

Daily Weather History Graph

Daily Weather History Graph

Search for Another Location

Airport:

Trip Planner

Search our weather history database for the weather conditions in past years. The results will help you decide how hot, cold, wet, or windy it might be!

Date:

Astronomy

Nov. 01, 2012 Rise Set
Actual Time 7:39 AM EDT 5:55 PM EDT
Civil Twilight 7:10 AM EDT 6:25 PM EDT
Nautical Twilight 6:36 AM EDT 6:58 PM EDT
Astronomical Twilight 6:03 AM EDT 7:31 PM EDT
Moon 7:47 PM EDT (11/1) 10:13 AM EDT (11/1)
Length of Visible Light 11h 15m
Length of Day
10h 15m
Waning Gibbous, 93% of the Moon is Illuminated
Nov 1
Waning Gibbous
Nov 6
Last Quarter
Nov 13
New
Nov 20
First Quarter
Nov 28
Full

Hourly Weather History & Observations

Time (EDT) Temp. Windchill Dew Point Humidity Pressure Visibility Wind Dir Wind Speed Gust Speed Precip Events Conditions
12:16 AM 44.6 °F 43.1 °F 37.4 °F 76% 29.46 in 10.0 mi SE 3.5 mph - 0.00 in Rain Light Rain
12:54 AM 45.0 °F 43.5 °F 37.9 °F 76% 29.46 in 10.0 mi SSE 3.5 mph - 0.00 in Rain Light Rain
1:54 AM 45.0 °F 41.2 °F 37.9 °F 76% 29.45 in 10.0 mi South 6.9 mph - 0.00 in Rain Light Rain
2:54 AM 45.0 °F 40.6 °F 39.0 °F 80% 29.44 in 10.0 mi SSW 8.1 mph - 0.00 in Rain Light Rain
3:24 AM 44.6 °F 40.7 °F 39.2 °F 81% 29.44 in 10.0 mi South 6.9 mph - 0.00 in Rain Light Rain
3:54 AM 44.1 °F 40.8 °F 39.9 °F 85% 29.44 in 10.0 mi South 5.8 mph - 0.00 in Rain Light Rain
4:01 AM 44.6 °F 40.7 °F 39.2 °F 81% 29.44 in 10.0 mi South 6.9 mph - 0.00 in Rain Light Rain
4:26 AM 44.6 °F 42.2 °F 41.0 °F 87% 29.44 in 10.0 mi South 4.6 mph - 0.01 in Rain Light Rain
4:47 AM 44.6 °F 41.4 °F 41.0 °F 87% 29.44 in 10.0 mi SSW 5.8 mph - 0.02 in Rain Light Rain
4:54 AM 45.0 °F 41.8 °F 41.0 °F 86% 29.44 in 10.0 mi SSW 5.8 mph - 0.02 in Rain Light Rain
5:10 AM 44.6 °F 40.2 °F 41.0 °F 87% 29.44 in 10.0 mi SSW 8.1 mph - 0.00 in Rain Light Rain
5:29 AM 44.6 °F 40.7 °F 42.8 °F 93% 29.44 in 10.0 mi SSW 6.9 mph - 0.00 in Rain Light Rain
5:54 AM 45.0 °F 40.6 °F 42.1 °F 90% 29.44 in 10.0 mi SW 8.1 mph - 0.01 in Rain Light Rain
6:14 AM 44.6 °F 39.7 °F 42.8 °F 93% 29.44 in 10.0 mi SW 9.2 mph - 0.00 in Rain Light Rain
6:54 AM 45.0 °F 40.6 °F 42.1 °F 90% 29.44 in 10.0 mi SSW 8.1 mph - 0.01 in Rain Light Rain
7:52 AM 46.4 °F 41.5 °F 42.8 °F 87% 29.45 in 10.0 mi SW 10.4 mph - 0.01 in Rain Light Rain
7:54 AM 46.0 °F 41.0 °F 42.1 °F 86% 29.45 in 10.0 mi SW 10.4 mph - 0.01 in Rain Light Rain
8:12 AM 44.6 °F 40.7 °F 42.8 °F 93% 29.46 in 8.0 mi SW 6.9 mph - 0.01 in Rain Light Rain
8:47 AM 44.6 °F 40.7 °F 42.8 °F 93% 29.47 in 2.5 mi SW 6.9 mph - 0.03 in Rain Light Rain
8:54 AM 45.0 °F 41.2 °F 42.1 °F 90% 29.47 in 2.5 mi SW 6.9 mph - 0.03 in Rain Light Rain
9:02 AM 44.6 °F 41.4 °F 42.8 °F 93% 29.47 in 3.0 mi West 5.8 mph - 0.00 in Rain Light Rain
9:04 AM 44.6 °F 41.4 °F 42.8 °F 93% 29.48 in 2.5 mi West 5.8 mph - 0.00 in Rain Light Rain
9:14 AM 44.6 °F 39.2 °F 42.8 °F 93% 29.48 in 2.5 mi WSW 10.4 mph - 0.02 in Rain Light Rain
9:17 AM 44.6 °F 39.7 °F 42.8 °F 93% 29.48 in 4.0 mi WSW 9.2 mph - 0.02 in Rain Light Rain
9:31 AM 46.4 °F 41.1 °F 42.8 °F 87% 29.48 in 10.0 mi WSW 11.5 mph - 0.03 in Rain Light Rain
9:54 AM 46.0 °F 41.0 °F 42.1 °F 86% 29.48 in 10.0 mi WSW 10.4 mph - 0.04 in Rain Light Rain
10:50 AM 46.4 °F 41.9 °F 42.8 °F 87% 29.50 in 10.0 mi WSW 9.2 mph - 0.04 in Rain Light Rain
10:54 AM 46.0 °F 41.4 °F 43.0 °F 89% 29.49 in 9.0 mi SW 9.2 mph - 0.04 in Rain Light Rain
11:54 AM 46.0 °F 39.0 °F 42.1 °F 86% 29.50 in 10.0 mi WSW 17.3 mph 24.2 mph 0.02 in Rain Light Rain
12:34 PM 46.4 °F 39.5 °F 42.8 °F 87% 29.51 in 10.0 mi WSW 17.3 mph - 0.00 in Rain Light Rain
12:41 PM 46.4 °F 40.4 °F 42.8 °F 87% 29.51 in 10.0 mi West 13.8 mph - 0.00 in Rain Light Rain
12:51 PM 46.4 °F 40.7 °F 42.8 °F 87% 29.51 in 10.0 mi West 12.7 mph - 0.00 in Rain Light Rain
12:54 PM 46.0 °F 39.0 °F 42.1 °F 86% 29.50 in 10.0 mi WSW 17.3 mph 21.9 mph 0.00 in Rain Light Rain
1:27 PM 46.4 °F 41.1 °F 42.8 °F 87% 29.50 in 10.0 mi West 11.5 mph - 0.00 in   Light Drizzle
1:54 PM 46.0 °F 39.6 °F 42.1 °F 86% 29.50 in 10.0 mi WSW 15.0 mph - 0.00 in Rain Light Rain
2:28 PM 46.4 °F 40.1 °F 42.8 °F 87% 29.50 in 10.0 mi WSW 15.0 mph - 0.00 in   Overcast
2:54 PM 46.0 °F 41.0 °F 42.1 °F 86% 29.50 in 10.0 mi WSW 10.4 mph 19.6 mph 0.00 in Rain Light Rain
3:19 PM 46.4 °F 41.5 °F 42.8 °F 87% 29.51 in 10.0 mi WSW 10.4 mph - 0.01 in Rain Light Rain
3:54 PM 46.0 °F 41.0 °F 42.1 °F 86% 29.51 in 10.0 mi WSW 10.4 mph - 0.01 in Rain Light Rain
4:24 PM 46.4 °F 41.5 °F 42.8 °F 87% 29.52 in 10.0 mi WSW 10.4 mph - 0.00 in Rain Light Rain
4:54 PM 46.0 °F 41.0 °F 42.1 °F 86% 29.52 in 10.0 mi WSW 10.4 mph - 0.00 in Rain Light Rain
5:24 PM 44.6 °F 38.1 °F 41.0 °F 87% 29.53 in 10.0 mi West 13.8 mph - 0.02 in Rain Light Rain
5:54 PM 45.0 °F 40.6 °F 41.0 °F 86% 29.53 in 10.0 mi WSW 8.1 mph - 0.03 in Rain Light Rain
6:54 PM 45.0 °F 39.3 °F 41.0 °F 86% 29.55 in 10.0 mi WSW 11.5 mph - 0.00 in   Overcast
7:54 PM 45.0 °F 39.3 °F 41.0 °F 86% 29.56 in 10.0 mi WSW 11.5 mph - 0.00 in   Overcast
8:44 PM 44.6 °F 38.4 °F 41.0 °F 87% 29.56 in 10.0 mi WSW 12.7 mph 18.4 mph N/A   Overcast
8:54 PM 44.1 °F 37.7 °F 41.0 °F 89% 29.56 in 10.0 mi WSW 12.7 mph - 0.00 in Rain Light Rain
9:04 PM 44.6 °F 38.1 °F 39.2 °F 81% 29.56 in 10.0 mi WSW 13.8 mph - 0.00 in Rain Light Rain
9:54 PM 44.1 °F 37.1 °F 39.0 °F 82% 29.57 in 10.0 mi West 15.0 mph 20.7 mph 0.00 in   Light Drizzle
10:54 PM 43.0 °F 36.8 °F 39.0 °F 86% 29.57 in 10.0 mi WSW 11.5 mph - 0.00 in Rain Light Rain
11:01 PM 42.8 °F 36.2 °F 39.2 °F 87% 29.58 in 10.0 mi WSW 12.7 mph - 0.00 in   Overcast
11:54 PM 43.0 °F 36.8 °F 39.0 °F 86% 29.58 in 10.0 mi WSW 11.5 mph - 0.00 in Rain Light Rain